Regional Weather Roundup
Issued by NWS

Home | Current Version | Previous Version | Graphics & Text | Print | Product List | Glossary On
Versions: 1 2 3 4 5 6 7 8 9 10 11 12 13 14 15 16 17 18 19 20 21 22 23 24 25 26 27 28 29 30 31 32 33 34 35 36 37 38 39 40 41 42 43 44 45 46 47 48 49 50
000
ASUS43 KLOT 200403
RWRIL

ILLINOIS REGIONAL WEATHER ROUNDUP
NATIONAL WEATHER SERVICE CHICAGO/ROMEOVILLE IL
1100 PM CDT TUE SEP 19 2017

NOTE: "FAIR" INDICATES FEW OR NO CLOUDS BELOW 12,000 FEET WITH NO
SIGNIFICANT WEATHER AND/OR OBSTRUCTIONS TO VISIBILITY.

* THESE STATIONS ARE NOT UNDER NWS QUALITY CONTROL. THEY ALSO MAY NOT
  REPORT WEATHER SUCH AS PRECIPITATION OR FOG.

ILZ001-002-007-009-015-016-024-200500-
NORTHWEST ILLINOIS

CITY           SKY/WX    TMP DP  RH WIND       PRES   REMARKS
MOLINE         CLEAR     68  64  87 SE6       29.86S
STERLING*        N/A     64  63  96 E6        29.90R
SAVANNA*       CLEAR     66  64  91 SE5       29.88S
$$

ILZ003-004-008-010-011-017-018-200500-
NORTH CENTRAL ILLINOIS

CITY           SKY/WX    TMP DP  RH WIND       PRES   REMARKS
ROCKFORD       CLEAR     65  62  90 SE10      29.92S
FREEPORT*      CLEAR     64  62  92 SE8       29.92S
ROCHELLE*      CLEAR     63  62  97 SE5       29.92R FOG
DE KALB*       CLEAR     64  63  96 E6        29.93S FOG
PERU*          CLEAR     67  64  87 E7        29.90S
$$

ILZ005-006-012>014-019>023-200500-
NORTHEAST ILLINOIS

CITY           SKY/WX    TMP DP  RH WIND       PRES   REMARKS
CHICAGO-OHARE  CLEAR     68  62  81 E6        29.93S
CHICAGO-MIDWAY CLEAR     69  64  84 E6        29.93S
AURORA         CLEAR     65  62  90 E7        29.93R
LANSING*       CLEAR     65  64  97 E3        29.94S
JOLIET*        CLEAR     67  65  92 E5        29.93S
WAUKEGAN       FOG       61  61 100 CALM      29.93R VSB 1/2
DUPAGE AIRPORT CLEAR     64  63  96 E6        29.93R FOG
KANKAKEE*      CLEAR     64  64  97 CALM      29.94R
WHEELING       CLEAR     65  65 100 CALM      29.94S
MORRIS*        CLEAR     64  63  94 E5        29.91S FOG
ROMEOVILLE*    CLEAR     64  63  94 E7        29.93S FOG
NORTHERLY ISL    N/A     67  64  90 E2          N/A
$$

LMZ740>746-200500-
SOUTHERN LAKE MICHIGAN

STATION/POSITION SKY/WX   TEMP    WIND        PRES    VSBY  WAVE
                          AIR SEA DIR/SP/G                  HT/PER
                          (F)     (DEG/KT/KT) (MB)    (MI)  (FT/S)
SOUTHERN BUOY              68 69   40/  8/ 10 1013.6          0
WILMETTE HARBOR            69 69   90/  6/ 10   N/A           1/ 4
HARRISON CRIB              69      90/  7/  8   N/A
CALUMET HARBOR             68      50/  2/  4 1013.1R
BURNS HARBOR               67      80/  6/  7 1014.2S
MICHIGAN CITY              65      90/  2/  3   N/A
MICHIGAN CITY 6N           67 69  110/  6/  8   N/A           1/ 3
ST. JOSEPH                 68 69  160/  4/  6 1013.8R         1
$$

ILZ025>027-034>036-040-047-049-050-058-095>099-200500-
WEST-CENTRAL ILLINOIS

CITY           SKY/WX    TMP DP  RH WIND       PRES   REMARKS
QUINCY         CLEAR     71  65  81 SE7       29.84S
GALESBURG*     CLEAR     68  64  87 E5        29.88F
MACOMB*        CLEAR     68  66  93 SE6       29.88S
PITTSFIELD*    CLEAR     71  67  87 SE6       29.87S
$$

ILZ028>032-037-038-041>044-048-051>054-059>061-200500-
CENTRAL ILLINOIS

CITY           SKY/WX    TMP DP  RH WIND       PRES   REMARKS
PONTIAC        CLEAR     65  65  98 CALM      29.92S
BLOOMINGTON    CLEAR     68  64  87 SE8       29.92R
DECATUR        CLEAR     69  65  86 SE6       29.91R
PEORIA         CLEAR     72  64  76 SE6       29.89R
LACON*         CLEAR     65  63  94 CALM      29.89R
LINCOLN*       CLEAR     69  65  88 SE5       29.89S
SPRINGFIELD    CLEAR     73  66  78 SE7       29.89R
TAYLORVILLE    NOT AVBL
$$

ILZ033-039-045-046-055>057-062-063-200500-
EAST-CENTRAL ILLINOIS

CITY           SKY/WX    TMP DP  RH WIND       PRES   REMARKS
CHAMPAIGN      CLEAR     67  63  87 SE6       29.93R
RANTOUL*       CLEAR     68  65  92 SE3       29.92S
MATTOON        CLEAR     69  66  90 SE5       29.91R
PARIS*         CLEAR     68  65  90 SE5       29.94R FOG
$$

ILZ079-100>102-200500-
SOUTHWEST ILLINOIS

CITY           SKY/WX    TMP DP  RH WIND       PRES   REMARKS
ALTON          CLEAR     72  68  87 SE5       29.89R
BELLEVILLE     CLEAR     73  65  76 CALM      29.91R
CAHOKIA*       CLEAR     77  67  71 SE7       29.88R
SPARTA*        CLEAR     74  68  82 SE3       29.91S
$$

ILZ064>066-069>071-074>076-080>082-084>086-088>090-092>094-200500-
SOUTH-CENTRAL ILLINOIS

CITY           SKY/WX    TMP DP  RH WIND       PRES   REMARKS
CARBONDALE     CLEAR     72  70  93 SE3       29.90S
CAIRO*         CLEAR     71  71 100 CALM      29.91R
EFFINGHAM*     CLEAR     70  67  91 CALM      29.93R
MARION         CLEAR     73  73 100 SE3       29.92S
CENTRALIA*     CLEAR     74  68  82 CALM      29.90S
SALEM*         CLEAR     75  66  73 SE3       29.91S
METROPOLIS*    CLEAR     71  70  95 CALM      29.92F
$$

ILZ067-068-072-073-078-083-087-091-200500-
SOUTHEAST ILLINOIS

CITY           SKY/WX    TMP DP  RH WIND       PRES   REMARKS
LAWRENCEVILLE  CLEAR     71  69  93 CALM      29.93R
FLORA*         CLEAR     71  68  90 S5        29.92S
FAIRFIELD*     CLEAR     69  67  94 CALM      29.91S
HARRISBURG*    CLEAR     70  69  98 CALM      29.92S
ROBINSON*      CLEAR     67  66  97 CALM      29.93R
CARMI*         CLEAR     68  67  99 S5        29.92S FOG
$$

ABBREVIATIONS USED IN REMARKS
   TC - TEMPERATURE IN CELSIUS
  WCI - WIND CHILL INDEX
   HX - HEAT INDEX
  VSB - VISIBILITY
$$




USA.gov is the U.S. government's official web portal to all federal, state and local government web resources and services.